Location: Smithsonian NASM Public Observatory
(38.8879°N, 77.0185°W)
Time: 17:19:14
(UTC-05:00)

Daily predictions for brighter satellites

Satellite Brightness Start Highest point End
(mag) Time Altitude Azimuth Time Altitude Azimuth Time Altitude Azimuth
CZ-2C R/B 4.2 17:11:34 10° N 17:16:00 62° WNW 17:20:27 10° SSW
USA 234 3.4 17:10:19 10° NE 17:16:51 70° SE 17:23:21 10° SW
Cosmos 2082 Rocket 2.6 17:12:17 10° N 17:17:37 40° ENE 17:22:56 10° SE
YAOGAN 1 2.9 17:14:35 10° SE 17:18:40 43° ENE 17:22:47 10° N
CRYOSAT 2 4.4 17:14:21 10° N 17:19:17 85° E 17:24:10 10° S
PAYLOAD A 3.9 17:15:12 10° SSE 17:20:03 83° ENE 17:25:08 10° N
Cosmos 1500 3.3 17:21:26 10° N 17:25:13 53° E 17:29:00 10° SSE
CZ-2C R/B 2.5 17:21:08 10° SSE 17:26:05 63° ENE 17:31:12 10° N
Timation 1 Rocket 4.5 17:20:39 10° S 17:26:27 58° ESE 17:32:17 10° NNE
Cosmos 1743 3.7 17:24:22 10° NNE 17:27:41 26° ENE 17:30:58 10° SE
Nadezhda 3 Rocket 4.2 17:22:52 10° SSE 17:28:49 51° E 17:34:52 10° NNE
NOSS 3-4 (A) 4.4 17:23:53 10° NNW 17:30:12 35° NE 17:36:49 10° ESE
NOSS 3-4 (C) 4.4 17:24:00 10° NNW 17:30:17 34° NE 17:36:54 10° ESE
Cosmos 1455 Rocket 3.9 17:32:00 10° NNW 17:36:21 55° W 17:40:41 10° S
Delta 2 Rocket 3.6 17:37:50 10° WSW 17:41:17 51° S 17:44:47 12° ESE
SKYMED 2 4.2 17:40:23 10° NNE 17:44:23 35° E 17:48:21 10° SSE
Cosmos 1484 Rocket 3.3 17:41:19 10° SE 17:44:41 33° ENE 17:48:03 10° N
Cosmos 2056 Rocket 4.2 17:39:51 10° SSE 17:44:43 36° E 17:49:18 11° NE
ATLAS 2AS CENTAUR R/B 4.4 17:37:41 10° NW 17:45:02 42° WSW 17:51:53 10° S
GRACE-2 4.3 17:44:20 10° SSE 17:46:58 40° E 17:49:36 10° NNE
GRACE-1 4.2 17:44:44 10° SSE 17:47:23 41° E 17:50:02 10° NNE
Cosmos 1809 Rocket 4.4 17:44:14 10° N 17:50:24 84° E 17:56:30 10° S
SMAP 3.3 17:46:08 10° S 17:50:45 75° WSW 17:55:25 10° NNW
Cosmos 2369 Rocket 3.7 17:51:14 10° SE 17:54:30 16° E 17:54:58 16° E
CORIOLIS 4.3 17:49:22 10° SSE 17:54:47 82° WSW 18:00:12 10° NNW
Okean 2 4.4 17:52:11 10° SE 17:55:36 25° E 17:57:07 21° ENE
Cosmos 1624 Rocket 4.2 17:52:29 10° S 17:57:29 51° ESE 18:02:04 12° NNE
Cosmos 1975 4.1 17:53:40 10° NNW 17:57:32 44° W 18:01:21 10° SSW
SL-24 DEB 4.3 17:52:57 10° N 17:57:42 86° W 18:02:21 10° S
Meteor 1-13 Rocket 4.3 17:56:32 10° S 18:02:14 86° W 18:08:06 10° N
Meteor 2-4 Rocket 3.7 17:57:34 10° S 18:02:45 53° E 18:07:57 10° NNE
Okean 1-7 Rocket 3.6 17:58:43 10° S 18:03:13 88° E 18:07:42 10° N
Cosmos 1371 Rocket 4.0 17:58:07 10° S 18:03:27 74° ESE 18:08:49 10° NNE
Cosmos 1726 Rocket 4.3 18:00:38 10° NNE 18:04:35 30° ENE 18:08:32 10° SE
CZ-4 R/B 3.3 18:03:02 10° SSW 18:06:48 33° W 18:10:34 10° NNW
Tiangong 1 1.8 18:05:51 10° WNW 18:08:43 37° N 18:09:19 33° NNE
MSX 4.0 18:05:47 10° S 18:11:32 78° WSW 18:17:18 10° NNW
Cosmos 1934 Rocket 4.0 18:07:02 10° N 18:13:09 55° E 18:19:19 10° SSE
NOSS 7 (H) 4.3 18:11:57 10° SSW 18:15:19 68° ESE 18:16:13 43° NE
Cosmos 1340 3.6 18:16:19 10° SSE 18:18:56 30° ESE 18:18:56 30° ESE
Cosmos 1535 Rocket 4.4 18:17:07 10° N 18:23:25 85° E 18:29:36 10° S
Cosmos 1606 Rocket 3.5 18:19:46 10° N 18:24:13 61° E 18:28:38 10° SSE
METEOR-M 4.3 18:21:38 10° SE 18:26:41 45° ENE 18:31:44 10° N
COSMO-SKYMED 1 2.9 18:28:11 10° N 18:32:30 64° WNW 18:36:47 10° SSW
Cosmos 1452 Rocket 3.8 18:28:42 10° S 18:33:35 41° ESE 18:33:51 40° E
Cosmos 1190 Rocket 3.8 18:30:21 10° NNW 18:35:36 70° ENE 18:40:46 10° SSE
GEOS 3 Rocket 4.1 18:36:10 37° NE 18:36:10 37° NE 18:40:46 10° NNW
Cosmos 1025 Rocket 3.6 18:33:52 10° SSW 18:38:10 58° W 18:42:27 10° N
Cosmos 1666 2.9 18:35:36 10° NNW 18:39:28 71° W 18:43:19 10° S
Cosmos 1821 Rocket 4.4 18:41:48 10° NNW 18:47:48 62° W 18:53:47 10° S
Cosmos 1153 Rocket 4.5 18:45:21 10° N 18:51:20 52° E 18:57:16 10° SSE
Cosmos 1833 Rocket 4.1 18:47:00 10° NW 18:52:10 38° WSW 18:57:17 10° S
Cosmos 1605 Rocket 3.9 18:52:22 10° N 18:58:41 88° E 19:04:51 10° S
USA 234 4.2 18:56:14 23° NNE 18:59:33 38° NNW 19:05:27 10° W
CZ-3B DEB 4.3 18:55:30 10° WNW 19:00:39 30° N 19:04:32 24° NNE
Cosmos 2082 Rocket 4.3 18:56:48 10° NW 19:01:27 27° WSW 19:06:06 10° SSW
BREEZE M DEB (TANK) 4.1 19:09:01 10° W 19:13:17 26° NW 19:13:17 26° NW
NOSS 3-4 (A) 4.4 19:14:32 10° NW 19:21:26 55° WSW 19:28:43 10° SSE
NOSS 3-4 (C) 4.4 19:14:37 10° NW 19:21:32 55° WSW 19:28:50 10° SSE
Cosmos 407 Rocket 4.4 19:20:46 10° NNW 19:25:41 47° WSW 19:30:36 10° S
BREEZE M DEB (TANK) 4.1 19:26:15 10° NW 19:31:08 89° NE 19:34:19 50° SE
Cosmos 2369 Rocket 2.7 19:32:15 10° SSW 19:36:50 55° WSW 19:36:50 55° WSW
FALCON 9 R/B 3.2 19:32:52 10° W 19:49:04 61° SSW 19:49:07 61° SSW
ATLAS 3B CENTAUR R/B 4.2 19:44:54 10° W 19:58:36 34° SSW 20:00:27 31° S
